Presure
150 123 109 145 140 129 106 148 144 176 186 119 100 119 121 121 124 203 269 258 230 240 172 201 215 210 239 90 169 119 184 160 104 161 159 135 159 151 163 148 149 132 91
143 137 139 147 144 147 156 206 119 184 153 154 107 135 102 163 197 114 201 173 249 250 249 209 205 211 210 210 207 199 147 95 169 131 148 131 164 169 126 113 93 153 106
162 145 149 137 147 120 152 185 175 160 180 106 111 104 120 130 227 126 205 197 198 206 204 98 192 205 200 213 194 206 90 183 112 163 157 108 153 151 127 142 147 163 127
150 143 159 151 165 191 169 169 161 127 141 125 116 189 108 124 230 242 209 180 192 193 195 196 194 189 164 193 86 191 110 165 90 186 164 155 161 173 147 138 177 155 154
156 153 126 173 147 147 160 161 129 121 119 120 114 141 119 184 205 237 207 194 196 194 199 183 189 191 195 208 205 155 212 172 205 152 139 154 165 166 122 123 154 85 150
112 127 149 194 159 150 152 154 196 108 216 152 109 218 226 245 243 234 209 185 189 216 197 185 177 173 184 193 199 172 199 193 199 89 179 183 164 168 163 166 169 137 119
160 143 168 146 160 157 194 158 196 205 213 196 236 214 248 238 233 215 204 193 198 206 192 178 175 176 170 173 189 169 177 192 187 192 188 150 177 127 154 110 156 161 97
167 159 136 154 165 162 198 197 202 211 169 222 229 237 238 236 240 222 195 187 179 190 185 181 166 176 175 183 176 186 185 185 136 193 191 116 134 164 145 114 167 125 164
133 166 162 162 182 187 176 203 190 207 212 253 218 258 237 243 232 207 199 199 178 208 197 154 156 171 181 169 173 179 187 192 152 209 176 154 102 166 145 104 169 127 125
161 121 132 171 181 179 196 137 203 181 212 240 209 246 221 235 228 211 195 189 159 171 151 160 156 173 177 171 166 185 172 143 190 175 188 187 175 88 88 152 159 104 136
160 179 146 175 193 195 198 202 186 190 234 225 204 227 226 208 226 188 161 167 166 170 156 154 189 181 175 182 170 180 180 179 175 188 185 138 189 167 147 133 114 103 111
165 156 162 194 185 183 192 189 181 229 229 212 198 270 213 228 190 162 174 170 164 183 165 172 192 163 176 179 177 182 178 176 117 185 179 156 137 86 164 95 100 165 99
159 175 190 186 181 189 195 177 187 224 217 208 194 270 225 206 169 164 179 179 161 173 156 176 191 165 167 165 171 176 171 174 74 181 134 168 185 182 179 87 160 193 164
191 190 187 182 189 187 180 187 187 195 209 205 191 207 194 183 169 167 173 157 170 170 165 164 179 209 156 156 171 167 174 171 175 188 182 168 91 107 82 81 175 72 120
189 189 172 189 181 183 184 186 216 219 209 199 189 200 183 181 172 170 179 170 177 182 171 161 156 157 168 168 174 159 169 173 181 174 175 176 172 158 125 174 172 91 117
166 178 181 179 179 184 187 208 217 219 202 189 189 178 191 184 177 169 193 174 162 173 173 178 162 159 188 184 171 169 160 169 180 180 155 156 164 189 139 151 174 172 118
186 180 173 177 175 176 215 223 213 188 198 191 189 175 151 217 182 185 167 176 159 163 169 180 159 150 132 185 179 164 130 170 151 171 175 160 175 173 168 176 154 169 173
175 169 183 214 206 205 200 208 208 195 197 177 185 182 221 143 191 179 176 171 168 188 173 179 197 175 165 179 173 165 168 168 173 175 170 181 152 181 178 175 181 156 167
198 199 203 191 189 187 200 199 163 180 187 183 188 180 170 154 201 188 181 173 170 178 170 178 162 154 154 151 165 173 160 162 171 176 179 167 156 179 166 163 166 162 169
188 181 183 184 193 186 175 182 161 170 190 198 187 171 170 163 182 208 179 168 181 183 168 174 189 188 167 177 171 173 169 133 179 182 180 172 161 164 172 154 167 150 154
204 197 170 172 174 188 180 195 173 174 198 177 185 172 169 164 170 176 206 179 180 169 181 167 186 170 171 194 164 190 177 140 163 167 171 169 171 181 171 171 166 155 153
198 200 197 196 160 202 184 172 191 181 173 181 191 179 167 162 173 185 193 189 174 171 181 190 167 181 181 165 153 144 159 157 169 150 157 177 170 164 155 162 167 169 172
193 201 197 196 190 192 197 183 176 182 180 168 196 181 171 165 166 158 189 183 187 177 167 174 167 168 163 179 192 177 141 144 147 179 160 183 177 170 169 174 177 176 168
182 175 190 180 190 191 184 190 182 180 175 156 204 179 173 160 162 168 190 210 182 187 162 160 162 161 169 167 169 152 185 175 147 158 157 164 157 199 162 189 190 197 190
175 186 173 184 181 190 192 190 189 165 179 169 173 207 168 171 161 161 168 162 193 184 186 180 175 160 161 169 167 169 152 151 163 150 161 146 177 176 171 163 181 185 159
193 198 180 180 172 172 186 193 192 185 165 174 166 158 165 169 165 166 162 154 167 160 178 186 188 172 178 176 174 180 175 164 174 171 165 180 169 183 160 174 152 163 154
Wind_Speed
55 41 36 50 45 43 41 49 45 57 61 42 34 38 39 36 38 31 23 25 31 28 40 37 35 44 42 32 52 36 59 66 39 66 63 47 70 62 71 56 58 46 29
55 48 48 56 54 57 65 66 44 64 55 55 40 44 35 41 44 31 33 27 13 15 22 32 33 41 47 49 51 54 56 29 67 49 65 45 72 72 42 46 36 62 34
67 61 62 46 59 51 51 63 63 56 60 44 43 41 44 45 35 40 32 35 28 18 21 25 35 39 42 43 50 50 25 62 38 68 71 40 66 63 46 54 64 69 54
67 59 71 66 63 65 67 66 58 52 51 53 48 49 45 47 28 32 29 32 28 24 22 23 28 32 37 43 28 53 37 39 28 64 70 63 72 73 64 58 72 70 63
71 68 53 67 55 58 69 63 50 52 55 54 51 53 47 41 26 28 27 30 30 28 29 31 26 30 34 34 41 37 46 60 56 62 50 60 69 70 46 46 68 30 63
52 54 68 67 69 65 63 55 67 54 62 51 52 36 31 26 24 22 28 33 33 32 31 33 35 39 33 34 36 50 50 55 57 36 65 67 70 70 71 72 75 49 55
73 70 70 67 70 70 77 62 65 63 60 48 39 34 26 24 20 27 31 34 25 23 27 33 35 37 45 40 40 43 47 53 58 55 62 63 70 54 66 46 69 74 46
75 70 65 71 71 71 76 74 65 62 49 49 35 25 24 22 22 31 36 31 23 22 21 26 42 37 46 41 49 47 50 54 46 57 58 50 57 72 62 49 78 54 77
69 75 75 76 76 80 73 66 61 59 51 41 31 19 24 23 30 38 43 39 28 15 17 49 52 50 52 52 52 54 53 54 55 47 62 68 39 75 67 51 75 55 58
82 69 72 79 86 83 66 63 58 50 49 35 27 19 24 30 36 46 34 33 40 54 62 53 52 56 60 58 59 57 54 50 49 57 56 60 66 35 34 69 72 53 56
78 87 80 89 69 64 61 61 54 54 43 30 23 20 28 25 41 37 46 40 41 53 61 57 59 61 60 57 62 60 57 57 56 56 58 57 59 72 66 61 51 48 51
81 73 77 70 63 64 59 54 51 45 37 27 19 26 26 34 43 47 41 45 45 55 63 51 63 50 63 64 64 63 62 60 44 59 62 62 46 39 55 42 48 78 48
78 97 76 70 66 63 60 51 48 39 34 27 18 30 32 42 47 50 47 47 59 56 49 43 54 53 60 58 62 61 57 58 30 62 56 56 56 59 61 40 53 58 75
80 76 72 69 66 62 57 55 45 44 35 30 22 25 32 57 52 54 57 55 63 61 47 46 46 50 61 61 62 53 61 58 60 61 59 58 51 48 46 37 67 36 52
77 74 73 67 64 63 60 53 45 35 36 32 25 26 35 58 58 59 61 60 64 69 58 49 53 57 60 61 61 53 63 62 66 61 57 60 65 59 51 63 62 47 49
82 77 71 69 65 62 55 55 38 35 37 34 29 30 41 61 63 60 61 68 56 58 59 65 56 53 60 67 63 61 54 62 68 67 54 54 56 57 63 59 62 62 58
77 77 77 72 65 57 52 41 37 35 37 35 34 34 44 57 66 73 62 62 47 44 43 68 51 48 59 60 69 61 62 64 50 61 62 61 64 65 61 68 60 61 65
82 80 79 56 58 56 48 39 37 37 37 35 39 36 42 52 73 68 76 66 53 71 49 55 73 62 56 58 62 62 67 61 66 67 64 65 62 67 65 65 66 60 63
80 75 67 72 65 51 49 42 51 41 37 41 43 41 41 47 63 76 74 74 64 66 53 52 46 53 60 53 56 61 58 61 59 68 66 64 63 67 65 61 63 62 63
81 81 79 74 66 58 52 49 55 47 44 47 46 45 45 46 50 71 76 59 78 78 57 49 68 66 54 66 64 64 59 68 66 66 68 68 65 63 63 68 68 70 70
74 77 81 75 68 63 58 51 54 49 46 43 48 48 49 50 51 50 82 72 79 69 77 55 69 55 52 71 56 72 68 71 46 53 65 64 66 70 65 66 71 73 72
76 74 76 73 70 65 62 62 53 51 47 47 51 54 54 54 53 56 67 80 70 75 85 84 54 63 58 52 61 68 55 64 66 60 58 71 72 69 66 71 72 75 76
79 75 75 74 73 69 62 63 60 55 50 60 55 60 62 56 54 54 70 62 75 85 68 75 61 59 56 56 67 64 75 75 69 72 66 83 79 76 78 77 81 83 79
84 82 79 78 78 76 70 67 66 60 57 52 57 59 59 57 56 56 55 71 70 83 71 65 68 60 66 60 58 70 70 62 74 66 68 61 67 71 71 81 74 76 74
85 88 86 83 83 79 79 74 70 69 61 63 58 63 61 62 62 62 61 62 65 74 87 90 95 68 64 69 69 64 74 75 71 78 73 82 73 68 70 72 69 71 77
90 92 91 90 89 85 82 80 75 71 71 63 65 67 65 65 65 65 66 67 63 64 72 81 85 82 90 92 89 90 79 73 81 81 78 81 76 72 76 69 84 77 80
Wind_Direction
279 266 256 284 281 276 259 284 278 294 294 264 254 265 264 267 268 274 262 248 251 245 254 240 225 224 224 244 229 234 223 228 233 230 231 243 234 240 232 242 241 241 234
280 275 277 286 286 289 290 295 273 297 289 286 261 271 259 277 286 259 276 254 230 219 219 215 223 218 218 217 213 217 239 240 222 242 242 229 230 229 225 229 238 239 245
280 283 283 277 286 270 282 294 293 295 296 261 260 262 263 273 270 267 261 265 253 213 208 232 228 216 219 216 219 215 242 221 237 228 233 236 240 229 229 242 241 236 236
279 276 283 284 288 291 291 291 293 264 277 267 264 291 261 269 266 241 242 244 250 224 207 208 210 218 223 224 247 220 239 224 236 219 227 232 234 227 233 233 228 242 240
278 280 267 290 279 282 288 290 266 266 266 268 262 273 266 270 266 229 224 231 237 244 195 217 196 211 215 214 211 222 214 220 217 232 227 226 230 230 232 235 239 241 245
259 271 279 287 284 284 284 285 305 264 305 282 263 291 269 257 238 219 205 228 239 216 199 203 214 221 219 213 213 220 215 218 218 239 220 221 231 229 233 233 231 243 238
280 276 285 278 285 285 301 288 300 303 305 298 303 287 258 261 228 195 202 217 225 223 225 212 217 223 228 216 212 219 224 216 216 220 219 230 221 234 231 239 234 237 241
284 281 276 280 289 285 299 302 299 303 287 307 298 277 251 247 210 184 203 214 195 211 208 195 216 225 225 220 223 219 219 222 225 218 218 229 224 228 229 237 231 239 237
273 284 280 280 294 299 299 299 301 300 305 300 293 234 239 200 191 177 196 188 176 168 180 222 234 228 219 226 229 221 219 220 225 213 221 235 232 226 229 236 232 240 240
279 272 275 290 295 297 295 274 299 296 303 295 289 228 241 192 188 182 185 163 202 168 231 230 228 226 221 226 230 219 225 227 219 222 223 222 223 232 232 237 239 239 245
275 289 279 292 290 287 292 294 296 297 294 290 282 236 223 213 193 177 224 208 202 200 218 227 217 216 222 224 229 225 223 220 219 222 222 229 227 232 234 236 241 240 242
282 274 282 285 286 290 292 291 292 295 285 284 272 221 226 210 192 222 186 191 210 198 215 220 212 228 219 220 224 224 224 225 232 221 224 239 230 236 235 233 238 239 240
277 285 283 282 285 287 286 284 290 287 279 276 260 215 216 199 215 222 185 215 212 211 224 202 211 223 226 234 233 228 231 231 243 224 234 224 223 227 231 247 239 243 239
276 276 279 280 278 281 280 282 282 284 272 268 251 228 206 190 218 213 189 224 208 218 215 203 210 217 230 236 238 243 241 244 238 231 228 229 243 239 244 256 234 260 240
269 272 274 274 277 277 277 279 280 264 264 261 246 231 214 197 214 207 199 205 210 212 213 221 226 226 227 237 241 238 238 245 239 244 242 232 236 244 244 238 240 251 249
272 271 270 271 271 273 275 280 264 249 258 252 244 229 216 200 211 219 192 205 233 222 223 222 224 230 231 230 239 238 242 242 246 248 239 243 250 238 245 244 242 243 248
268 266 266 268 268 269 270 261 258 253 250 248 246 230 231 198 204 202 230 217 237 236 235 222 233 241 232 229 232 238 230 240 238 244 243 243 251 253 251 245 246 248 246
267 266 267 261 260 263 262 258 251 250 243 243 242 232 220 238 204 212 219 230 234 223 238 224 221 229 237 232 232 237 240 243 243 243 242 245 243 243 249 251 248 249 252
260 260 260 261 261 257 260 253 246 247 242 242 235 236 229 226 210 214 217 228 236 231 235 238 235 235 233 240 244 239 240 239 245 247 247 242 242 246 247 249 251 251 253
257 259 259 260 259 254 249 247 243 242 241 235 237 236 232 227 220 216 221 230 225 229 240 232 240 231 239 236 242 242 246 237 244 247 248 246 242 244 245 241 248 246 245
253 255 255 254 254 253 245 246 241 237 241 235 234 232 235 233 228 227 219 222 226 235 233 237 243 233 237 236 240 234 242 238 253 256 253 252 250 251 248 247 246 247 247
250 248 250 252 253 250 246 240 241 237 232 233 231 230 232 234 233 225 219 222 227 231 235 237 235 240 242 228 228 233 239 241 249 245 249 250 252 252 244 250 254 253 255
249 247 248 247 249 248 245 245 238 235 231 237 229 226 229 232 234 236 226 226 229 228 236 237 239 240 231 246 248 243 237 242 240 248 245 250 251 255 254 255 254 253 252
247 247 246 247 248 245 242 240 240 237 227 244 233 228 229 233 235 236 231 229 225 232 234 236 240 237 244 239 238 230 257 248 243 247 243 249 244 253 254 255 251 250 253
249 245 245 245 246 245 244 240 236 227 235 228 225 228 230 229 230 234 233 235 227 228 230 234 237 239 238 245 242 240 236 239 245 242 243 248 258 251 247 246 253 253 245
245 245 242 243 245 245 243 241 239 235 229 235 224 229 229 231 229 232 234 237 236 236 231 234 237 239 243 246 250 253 250 238 252 254 243 262 243 260 245 243 245 257 254